Weather History for Hastings, NE

Change the Weather History Date:

Monday, January 6, 2014

  Actual Average Record
Temperature  
Mean Temperature 6 °F 26 °F  
Max Temperature 16 °F 35 °F 59 °F (1935)
Min Temperature -5 °F 16 °F -21 °F (1912)
Degree Days  
Heating Degree Days 59 39  
Month to date heating degree days 295 238  
Since 1 July heating degree days 2813 2678  
Cooling Degree Days 0 0  
Month to date cooling degree days 0 0  
Year to date cooling degree days 0 0  
Moisture  
Dew Point -14 °F    
Average Humidity 43    
Maximum Humidity 56    
Minimum Humidity 30    
Precipitation  
Precipitation 0.00 in 0.01 in 0.37 in (1940)
Month to date precipitation 0.11 0.05  
Year to date precipitation 0.11 0.05  
Snow  
Snow 0.00 in 0.20 in 5.00 in (1918)
Month to date snowfall 1.4 1.1  
Since 1 July snowfall 6.8 11.0  
Snow Depth 0.00 in    
Sea Level Pressure  
Sea Level Pressure 30.50 in    
Wind  
Wind Speed 13 mph (WNW)    
Max Wind Speed 26 mph    
Max Gust Speed 32 mph    
Visibility 10 miles    
Events      
T = Trace of Precipitation, MM = Missing Value Source: NWS Daily Summary

Daily Weather History Graph

Daily Weather History Graph

Search for Another Location

Airport:

Trip Planner

Search our weather history database for the weather conditions in past years. The results will help you decide how hot, cold, wet, or windy it might be!

Date:

Astronomy

Jan. 06, 2014 Rise Set
Actual Time 7:57 AM CST 5:22 PM CST
Civil Twilight 7:26 AM CST 5:52 PM CST
Nautical Twilight 6:52 AM CST 6:26 PM CST
Astronomical Twilight 6:19 AM CST 6:59 PM CST
Moon 11:11 AM CST (1/6) 11:58 PM CST (1/6)
Length of Visible Light 10h 25m
Length of Day
9h 24m
Waxing Crescent, 35% of the Moon is Illuminated
Jan 6
Waxing Crescent
Jan 7
First Quarter
Jan 15
Full
Jan 23
Last Quarter
Jan 30
New

Hourly Weather History & Observations

Time (CST) Temp. Windchill Dew Point Humidity Pressure Visibility Wind Dir Wind Speed Gust Speed Precip Events Conditions
12:53 AM -4.0 °F -28.6 °F -22.0 °F 42% 30.60 in 10.0 mi NW 23.0 mph - N/A   Clear
1:53 AM -5.1 °F -27.2 °F -20.9 °F 47% 30.60 in 10.0 mi NW 17.3 mph - N/A   Clear
2:53 AM -5.1 °F -25.1 °F -20.0 °F 49% 30.58 in 10.0 mi NW 13.8 mph - N/A   Clear
3:53 AM -4.0 °F -23.0 °F -20.0 °F 46% 30.58 in 10.0 mi WNW 12.7 mph - N/A   Clear
4:53 AM -5.1 °F -24.3 °F -18.9 °F 51% 30.58 in 10.0 mi WNW 12.7 mph - N/A   Clear
5:53 AM -2.9 °F -20.8 °F -18.0 °F 49% 30.58 in 10.0 mi WNW 11.5 mph - N/A   Clear
6:53 AM -4.0 °F -23.7 °F -18.0 °F 51% 30.58 in 10.0 mi West 13.8 mph - N/A   Clear
7:53 AM -4.0 °F -17.8 °F -17.0 °F 54% 30.58 in 10.0 mi West 6.9 mph - N/A   Clear
8:53 AM -0.0 °F -19.4 °F -16.1 °F 47% 30.60 in 10.0 mi WNW 15.0 mph - N/A   Clear
9:53 AM 3.0 °F -18.8 °F -16.1 °F 41% 30.60 in 10.0 mi NW 21.9 mph 27.6 mph N/A   Clear
10:53 AM 7.0 °F -14.0 °F -14.1 °F 38% 30.59 in 10.0 mi NW 23.0 mph 31.1 mph N/A   Clear
11:53 AM 10.0 °F -10.4 °F -14.1 °F 33% 30.56 in 10.0 mi NW 24.2 mph 31.1 mph N/A   Clear
12:53 PM 12.0 °F -6.0 °F -13.0 °F 32% 30.52 in 10.0 mi NW 19.6 mph - N/A   Clear
1:53 PM 12.9 °F -5.3 °F -13.0 °F 31% 30.49 in 10.0 mi WNW 20.7 mph 26.5 mph N/A   Clear
2:53 PM 14.0 °F -3.4 °F -11.9 °F 31% 30.48 in 10.0 mi NW 19.6 mph - N/A   Clear
3:53 PM 16.0 °F 1.1 °F -11.0 °F 30% 30.47 in 10.0 mi NW 15.0 mph - N/A   Clear
4:53 PM 15.1 °F 2.5 °F -11.0 °F 31% 30.45 in 10.0 mi NW 10.4 mph - N/A   Clear
5:53 PM 10.9 °F - -11.0 °F 37% 30.44 in 10.0 mi Calm Calm - N/A   Clear
6:53 PM 9.0 °F 2.4 °F -9.9 °F 42% 30.43 in 10.0 mi South 3.5 mph - N/A   Clear
7:53 PM 6.1 °F -0.9 °F -11.0 °F 45% 30.43 in 10.0 mi SSW 3.5 mph - N/A   Clear
8:53 PM 7.0 °F -1.7 °F -11.0 °F 44% 30.38 in 10.0 mi South 4.6 mph - N/A   Clear
9:53 PM 6.1 °F -2.8 °F -9.9 °F 48% 30.35 in 10.0 mi South 4.6 mph - N/A   Clear
10:53 PM 7.0 °F -4.5 °F -9.0 °F 48% 30.32 in 10.0 mi South 6.9 mph - N/A   Scattered Clouds
11:53 PM 8.1 °F -3.2 °F -7.1 °F 50% 30.28 in 10.0 mi South 6.9 mph - N/A   Clear